SL-12 R/B(2), 18578

Orbit data source: Space-Track

SL-12 R/B(2), 18578 is space debris in GEO originally from a launch on Thu, 26 Nov 1987 UTC launched from the Tyuratam Missile And Space Complex (TTMTR). Debris objects in space refer to the collection of defunct objects orbiting the Earth. Examples of debris include non-operational satellites, rocket bodies, and fragments generated from explosions, collisions, or faulty payload assembly.

Loading next visibility...
Identifier
18578, 1987-096D
Orbit
GEO
Country
Flag of CISCIS
Related business
Manufacturer
NPO Energiya
Mission
Spacecraft
Bus & Motor
BLOK DM, Unknown motor
Mass
2,440 kg wet, 2,440 kg dry
Launch date (UTC)
1987-11-26 (38 years ago)
Launch vehicle
Unknown
Launch site
Tyuratam Missile And Space Complex (TTMTR)
Object type
Payload
Rocket body
Debris
Shape & HBR
Cyl, 3.1 m
Radar Cross Section
23.597 m², Large (>1 m²)

Expand to show TLE details & history
Last TLE update: 17 hours ago

TLE from 17 hours ago
0 SL-12 R/B(2)
1 18578U 87096D   25351.66553632  .00000136  00000-0  00000-0 0  9991
2 18578  11.0708 327.3458 0023602 246.0928 309.7783  1.00563304136205
Epoch: 2025-12-17T15:58Z
TLE epoch observation values (Epoch: 2025-12-17T15:58:22.338Z)
Latitude
-2.97636°
Longitude
-163.4246°
Altitude
35,642.094 km
Speed
3.082 km/s
True Right ascension
10h 50m 48s
True Declination
-2° 58' 24"
Sunlit
Object was in daylight at epoch
Visualization orbit readout
Latitude
Unknown
Longitude
Unknown
Altitude
Unknown
Speed
Unknown
Apparent Right ascension
Unknown
Apparent Declination
Unknown
Sunlit
N/A
Visualization observer readout
Local Sidereal Time
07:51:34
Azimuth
Unknown
Elevation
Unknown
Doppler factor
Unknown
Orbital elements
Apogee altitude
35,805.411 km
Perigee altitude
35,606.756 km
Semi-major axis
42,084.221 km
Eccentricity
0.00236
Inclination
11.0708°
RAAN
327.3458°
Arg. of periapsis
246.0928°
True anomaly
309.57005°
Mean anomaly
309.7783°
Eccentric anomaly
309.67422°
Mean motion
0.2514 °/min
Orbital period
1,431.98 mins
BSTAR
0
Loading maneuver chart data...
Computing Atmospheric mass density...
Loading historical data...
Loading historical data...
Loading historical data...
Loading historical data...
Loading historical data...
Loading historical data...
Loading historical data...

Documentation

Showing up to 5 results
|